Regional Weather Roundup
Issued by NWS

Home | Current Version | Previous Version | Graphics & Text | Print | Product List | Glossary On
Versions: 1 2 3 4 5 6 7 8 9 10 11 12 13 14 15 16 17 18 19 20 21 22 23 24 25 26 27 28 29 30 31 32 33 34 35 36 37 38 39 40 41 42 43 44 45 46 47 48 49 50
000
ASUS43 KMPX 210101
RWRMN
WEATHER ROUNDUP FOR MINNESOTA
NATIONAL WEATHER SERVICE TWIN CITIES/CHANHASSEN MN
800 PM CDT SUN APR 20 2014


NOTE: "FAIR" INDICATES FEW OR NO CLOUDS BELOW 12,000 FEET WITH NO
SIGNIFICANT WEATHER AND/OR OBSTRUCTIONS TO VISIBILITY. N/A MEANS
CURRENT SKY AND/OR WEATHER CONDITIONS ARE NOT AVAILABLE.

MNZ060>063-068>070-210200-
   Twin Cities Metro

CITY           SKY/WX    TMP DP  RH WIND       PRES   REMARKS
TWIN CITIES    PTCLDY    69  51  52 SE5       29.93F
ST PAUL        CLEAR     64  51  62 S7        29.94S
CRYSTAL        CLEAR     69  39  33 VRB6      29.92S
BLAINE         PTCLDY    70  34  26 NE6       29.95R
EDEN PRAIRIE   PTCLDY    68  47  46 SE7       29.92F
LAKEVILLE      CLEAR     63  55  77 CALM      29.94S
SOUTH ST PAUL  CLEAR     70  52  52 CALM      29.93F
LAKE ELMO      FAIR      64  52  63 SE3       29.95S
$$
MNZ001>005-007-008-013>017-022>024-027-028-210200-
   Northwest Minnesota

CITY           SKY/WX    TMP DP  RH WIND       PRES   REMARKS
BEMIDJI        MOCLDY    61  32  33 CALM      29.92S
HALLOCK        CLOUDY    61  48  63 SE14      29.80F
ROSEAU         CLOUDY    52  43  71 E12       29.88F
WARROAD        CLOUDY    46  37  71 E7        29.91F
THIEF RVR FALL CLOUDY    61  43  51 SE9       29.88F
CROOKSTON      CLOUDY    66  37  34 S12       29.86F
FOSSTON        MOCLDY    61  34  36 SE6       29.90F
DETROIT LAKES  PTCLDY    63  32  31 S5        29.93S
MOORHEAD       MOCLDY    66  39  37 SE7       29.89F
PARK RAPIDS    CLEAR     65  31  28 S3        29.92F
$$
MNZ006-009>011-018-025>026-210200-
   North Central Minnesota

CITY           SKY/WX    TMP DP  RH WIND       PRES   REMARKS
BAUDETTE       CLOUDY    57  37  47 SE3       29.91F
FLAG ISLAND    MOCLDY    48  32  53 E6        29.90F
INTL FALLS     MOCLDY    52  34  50 E5        29.94F
WASKISH        CLOUDY    55  37  50 CALM      29.92F
BIG FORK       MOCLDY    57  30  35 CALM      29.95F
LONGVILLE      CLEAR     61  34  36 CALM      29.94F
GRAND RAPIDS   PTCLDY    59  28  31 CALM      29.95F
CRANE LAKE     MOCLDY    45  28  53 CALM      29.98S
ORR            MOCLDY    55  28  35 CALM      29.94S
COOK           PTCLDY    54  30  40 CALM      29.97S
$$
MNZ012-019>021-037-210200-
   Northeast Minnesota

CITY           SKY/WX    TMP DP  RH WIND       PRES   REMARKS
DULUTH         PTCLDY    57  31  37 SE6       29.98S
ELY            PTCLDY    54  30  40 CALM      29.98S
HIBBING        PTCLDY    53  32  44 CALM      29.96F
EVELETH        CLEAR     52  32  46 CALM      29.98S
DULUTH HARBOR  CLEAR     39  34  81 CALM      29.99S
TWO HARBORS    CLEAR     55  34  44 CALM      29.97S
SILVER BAY     CLEAR     48  36  61 CALM      29.97F
GRAND MARAIS     N/A     38  33  82 CALM      29.99F
G MARAIS ARPRT CLEAR     48  27  43 CALM      30.00F
$$
MNZ029>031-032-039>041-046>048-054>057-064-210200-
   West Central Minnesota

CITY           SKY/WX    TMP DP  RH WIND       PRES   REMARKS
FERGUS FALLS   CLEAR     64  28  25 SE6       29.87S
WHEATON        PTCLDY    66  37  34 SE7       29.92S
MORRIS         CLEAR     66  37  34 SE8       29.91F
ALEXANDRIA     CLEAR     66  37  34 SE6       29.94F
ELBOW LAKE     FAIR      64  37  36 SE7       29.91F
WADENA         CLEAR     63  36  36 CALM      29.93S
GLENWOOD       CLEAR     63  45  51 E6        29.95S
APPLETON       PTCLDY    66  39  37 E7        29.91F
BENSON         CLOUDY    70  36  28 SE6       29.92F
ORTONVILLE     PTCLDY    66  36  32 SE8       29.90F
MADISON        PTCLDY    68  45  42 E7        29.91S
WILLMAR        FAIR      64  37  36 NE6       29.95S
$$
MNZ033>034-036-042>043-049>051-058-059-210200-
   Central Minnesota

CITY           SKY/WX    TMP DP  RH WIND       PRES   REMARKS
ST CLOUD       PTCLDY    67  35  30 CALM      29.94S
SAUK CENTRE    MOCLDY    64  39  39 SE3       29.95S
PAYNESVILLE    CLOUDY    67  33  28 CALM      29.95S
AITKIN         CLEAR     64  25  22 S3        29.94F
PINE RIVER     CLEAR     61  36  39 SE3       29.97S
BRAINERD       CLEAR     67  30  25 SE6       29.95S
STAPLES        CLEAR     64  28  25 CALM      29.94S
LONG PRAIRIE   FAIR      64  37  36 CALM      29.95S
LITTLE FALLS   CLEAR     64  32  29 SE3       29.95S
LITCHFIELD     PTCLDY    66  43  42 NE3       29.94S
BUFFALO        CLEAR     65  35  32 N3        29.94F
MAPLE LAKE     MOCLDY    64  43  47 CALM      29.95S
$$
MNZ037-044-045-052-053-210200-
   East Central Minnesota

CITY           SKY/WX    TMP DP  RH WIND       PRES   REMARKS
PRINCETON      PTCLDY    66  32  28 CALM      29.95S
MORA           CLEAR     61  36  39 CALM      29.98S
CAMBRIDGE      CLEAR     66  43  42 CALM      29.94S
RUSH CITY      CLEAR     62  35  36 CALM      29.96S
HINCKLEY       FAIR      61  37  41 CALM      29.96S
CLOQUET        CLEAR     61  27  27 E3        29.98S
MCGREGOR       CLEAR     63  32  31 SE5       29.96S
$$
MNZ071>073-080-081-089-090-097-098-210200-
   Southwest Minnesota

CITY           SKY/WX    TMP DP  RH WIND       PRES   REMARKS
MONTEVIDEO     PTCLDY    64  43  45 E9        29.92F
GRANITE FALLS  PTCLDY    66  44  44 NE8       29.92S
CANBY          MOCLDY    66  43  43 E10       29.91S
MARSHALL       PTCLDY    70  43  37 E8        29.89S
REDWOOD FALLS  MOCLDY    70  47  43 E6        29.89F
OLIVIA         PTCLDY    63  46  55 E5        29.91F
PIPESTONE      CLEAR     73  46  38 E8        29.88S
WINDOM         PTCLDY    73  52  46 CALM      29.89S
WORTHINGTON    PTCLDY    73  50  43 E5        29.91R
JACKSON        PTCLDY    73  50  43 E5        29.89S
TRACY          PTCLDY    69  49  49 E8        29.89S
SLAYTON        PTCLDY    71  46  41 NE8       29.89F
$$
MNZ065>067-074>077-082>085-091>093-210200-
   South Central Minnesota

CITY           SKY/WX    TMP DP  RH WIND       PRES   REMARKS
MANKATO        PTCLDY    66  54  63 NE8       29.92S
NEW ULM        PTCLDY    70  54  56 E8        29.90F
ST JAMES       PTCLDY    70  55  60 E9        29.90S
FAIRMONT       PTCLDY    70  54  56 SE13      29.92R
GLENCOE        PTCLDY    67  47  48 E5        29.92F
FARIBAULT      PTCLDY    70  52  52 E6        29.94S
OWATONNA       PTCLDY    64  55  72 E6        29.94R
WASECA         PTCLDY    64  55  72 E8        29.94S
ALBERT LEA     MOCLDY    64  55  72 SE8       29.94S
$$
MNZ078>079-086>088-094>096-210200-
   Southeast Minnesota

CITY           SKY/WX    TMP DP  RH WIND       PRES   REMARKS
ROCHESTER      MOCLDY    62  55  77 E6        29.96S
RED WING       CLEAR     63  54  72 SE5       29.94F
STANTON        CLEAR     66  54  65 SE3       29.93S
DODGE CENTER   PTCLDY    66  59  77 E6        29.96R
WINONA           N/A    N/A N/A N/A MISG        N/A
AUSTIN         MOCLDY    63  57  82 E5        29.95R
PRESTON        CLOUDY    62  55  80 E5        29.96F
$$
ABBREVIATIONS USED IN REMARKS
   TC - TEMPERATURES IN CELSIUS
  WCI - WIND CHILL INDEX
   HX - HEAT INDEX
  VSB - VISIBILITY
$$


USA.gov is the U.S. government's official web portal to all federal, state and local government web resources and services.